[ hide orbit diagram ]
For accurate long-term ephemerides, please instead use our Horizons system.This orbit viewer was implemented using two-body methods, and hence should not be used for determining accurate long-term trajectories (over several years or decades) or planetary encounter circumstances.
Orbital Elements at Epoch 2459200.5 (2020-Dec-17.0) TDB
Reference: JPL 46 (heliocentric ecliptic J2000)
Element | Value | Uncertainty (1-sigma) | Units |
e | .2137097182894145 | 3.6117e-08 | |
a | 2.737013092180822 | 7.9261e-09 | au |
q | 2.152086795296419 | 9.8154e-08 | au |
i | 6.799378145817524 | 3.8051e-06 | deg |
node | 274.2827232112037 | 3.3634e-05 | deg |
peri | 97.42964136943638 | 3.4807e-05 | deg |
M | 204.5581619761637 | 1.1082e-05 | deg |
tp | 2459914.633097063343 (2022-Dec-01.13309706) | 5.2441e-05 | TDB |
period | 1653.917106303003 4.53 | 7.1843e-06 1.967e-08 | d yr |
n | .2176650804493504 | 9.455e-10 | deg/d |
Q | 3.321939389065224 | 9.6199e-09 | au |
|
| | Orbit Determination Parameters
Additional Information
|
[ show covariance matrix ]
Physical Parameter Table
Parameter |
Symbol |
Value |
Units |
Sigma |
Reference |
Notes |
absolute magnitude |
H |
10.13 |
|
n/a |
E2021B10 |
|
diameter |
diameter |
68.356 |
km |
0.726 |
urn:nasa:pds:neowise_diameters_albedos::2.0[mainbelt] (http://adsabs.harvard.edu/abs/2012ApJ...759L...8M) |
|
rotation period |
rot_per |
13.903 |
h |
n/a |
LCDB (Rev. 2020-October); Warner et al., 2009 |
Published Reference List: [Behrend, R. (2004) Observatoire de Geneve web site, http://obswww.unige.ch/~behrend/page_cou.html] [Pray, D. (2005) Minor Planet Bull. 32, 8-9.] [Behrend, R. (2006) Observatoire de Geneve web site, http://obswww.unige.ch/~behrend/page_cou.html] |
geometric albedo |
albedo |
0.052 |
|
0.007 |
urn:nasa:pds:neowise_diameters_albedos::2.0[mainbelt] (http://adsabs.harvard.edu/abs/2014ApJ...791..121M) |
|
SMASSII spectral type |
spec_B |
Ch |
|
n/a |
EAR-A-5-DDR-TAXONOMY-V4.0 |
based on a high-resolution spectrum by Xu et al. (1995) or Bus and Binzel (2002) |
|
539 Pamina (A904 PD) Discovered 1904-Aug-02 by Wolf, M. at Heidelberg |
Reference: DISCOVERY.DB | Last Updated: 2003-08-29 |
|
[ show close-approach data ]
|